Hourly Data Report for October 06, 2017

All times are specified in Local Standard Time (LST). Add 1 hour to adjust for Daylight Saving Time where and when it is observed.

BERENS RIVER CS
MANITOBA

52°21'35.052" N
97°01'19.032" W
221.90 m
5030203
71158
WCF

Download Data

Hourly Data (October 2017)
Hourly Data Report for October 6, 2017
Temp Definition
°C
Dew Point Temp Definition
°C
Rel Hum Definition
%
Wind Dir Definition
10's deg

Wind Spd Definition
km/h
Visibility Definition
km
Stn Press Definition
kPa
Hmdx Definition


Wind Chill Definition


Weather Definition


TIME
00:00 10.1 4.8 70 23 15   98.58     LegendNANA
01:00 10.3 5.7 73 22 13   98.58     LegendNANA
02:00 9.6 5.5 76 21 12   98.53     LegendNANA
03:00 9.3 5.0 74 22 12   98.46     LegendNANA
04:00 8.9 3.9 71 22 18   98.41     LegendNANA
05:00 9.0 4.6 74 23 16   98.35     LegendNANA
06:00 9.3 4.3 71 23 17   98.29     LegendNANA
07:00 8.8 4.0 72 22 15   98.24     LegendNANA
08:00 10.2 4.2 66 22 19   98.16     LegendNANA
09:00 11.3 4.4 63 22 20   98.07     LegendNANA
10:00 12.4 4.4 58 21 18   98.01     LegendNANA
11:00 13.8 4.4 53 20 19   97.95     LegendNANA
12:00 15.0 5.5 53 20 16   97.86     LegendNANA
13:00 15.5 5.8 52 20 17   97.77     LegendNANA
14:00 16.2 4.9 47 19 19   97.62     LegendNANA
15:00 16.5 4.9 46 19 18   97.50     LegendNANA
16:00 16.1 4.1 45 19 19   97.41     LegendNANA
17:00 15.0 3.9 47 19 18   97.32     LegendNANA
18:00 14.0 3.8 50 19 21   97.24     LegendNANA
19:00 13.8 3.4 49 19 19   97.18     LegendNANA
20:00 13.5 2.8 49 19 18   97.11     LegendNANA
21:00 13.0 3.5 52 19 17   97.00     LegendNANA
22:00 12.7 3.2 52 18 17   96.90     LegendNANA
23:00 12.6 3.1 53 18 17   96.78     LegendNANA

Notes on Data Quality.

Legend

  • E = Estimated
  • M = Missing
  • NA = Not Available
  • ‡ = Partner data that is not subject to review by the National Climate Archives
Date modified: